| time (UTC) | temp F | wind direction | speed MPH | gust MPH | rain 1hr in | rain 24hr in | rain mn in | humidity % | barometer mb |
| 20260509200350 | 65 | 251 | 5.0 | 14.0 | 0.00 | 0.00 | 0.00 | 59 | 1003.3 |
| 20260509195840 | 65 | 267 | 7.0 | 12.0 | 0.00 | 0.00 | 0.00 | 60 | 1003.3 |
| 20260509195340 | 64 | 231 | 5.0 | 13.0 | 0.00 | 0.00 | 0.00 | 61 | 1003.2 |
| 20260509194859 | 64 | 304 | 3.0 | 13.0 | 0.00 | 0.00 | 0.00 | 58 | 1003.2 |
| 20260509194341 | 64 | 130 | 5.0 | 14.0 | 0.00 | 0.00 | 0.00 | 60 | 1003.4 |
| 20260509193830 | 64 | 161 | 4.0 | 10.0 | 0.00 | 0.00 | 0.00 | 60 | 1003.6 |
| 20260509193411 | 63 | 198 | 2.0 | 9.0 | 0.00 | 0.00 | 0.00 | 64 | 1003.7 |
| 20260509192832 | 64 | 148 | 4.0 | 12.0 | 0.00 | 0.00 | 0.00 | 60 | 1003.7 |
| 20260509192354 | 65 | 238 | 4.0 | 8.0 | 0.00 | 0.00 | 0.00 | 61 | 1004.0 |
| 20260509191842 | 64 | 234 | 2.0 | 14.0 | 0.00 | 0.00 | 0.00 | 65 | 1004.1 |
| 20260509191351 | 63 | 317 | 6.0 | 14.0 | 0.00 | 0.00 | 0.00 | 64 | 1004.0 |
| 20260509190847 | 62 | 116 | 4.0 | 11.0 | 0.00 | 0.00 | 0.00 | 62 | 1004.1 |
| 20260509190330 | 62 | 140 | 4.0 | 11.0 | 0.00 | 0.00 | 0.00 | 62 | 1004.1 |
| 20260509185856 | 63 | 149 | 3.0 | 10.0 | 0.00 | 0.00 | 0.00 | 59 | 1004.1 |
| 20260509185354 | 63 | 262 | 4.0 | 12.0 | 0.00 | 0.00 | 0.00 | 61 | 1004.0 |
| 20260509184840 | 64 | 180 | 5.0 | 12.0 | 0.00 | 0.00 | 0.00 | 63 | 1003.9 |
| 20260509184331 | 63 | 191 | 4.0 | 11.0 | 0.00 | 0.00 | 0.00 | 59 | 1003.9 |
| 20260509183834 | 64 | 274 | 6.0 | 11.0 | 0.00 | 0.00 | 0.00 | 59 | 1004.0 |
| 20260509183351 | 63 | 205 | 6.0 | 10.0 | 0.00 | 0.00 | 0.00 | 64 | 1003.9 |
| 20260509182849 | 63 | 65 | 3.0 | 14.0 | 0.00 | 0.00 | 0.00 | 59 | 1004.0 |
| 20260509182346 | 63 | 125 | 4.0 | 14.0 | 0.00 | 0.00 | 0.00 | 62 | 1004.0 |
| 20260509181830 | 63 | 251 | 4.0 | 10.0 | 0.00 | 0.00 | 0.00 | 60 | 1004.0 |
| 20260509181332 | 62 | 79 | 2.0 | 10.0 | 0.00 | 0.00 | 0.00 | 67 | 1004.0 |
| 20260509180845 | 62 | 200 | 3.0 | 10.0 | 0.00 | 0.00 | 0.00 | 66 | 1004.1 |
| 20260509180343 | 62 | 224 | 4.0 | 9.0 | 0.00 | 0.00 | 0.00 | 65 | 1004.1 |
| 20260509175844 | 62 | 212 | 3.0 | 10.0 | 0.00 | 0.00 | 0.00 | 63 | 1004.2 |
| 20260509175340 | 63 | 221 | 5.0 | 10.0 | 0.00 | 0.00 | 0.00 | 60 | 1004.2 |
| 20260509174836 | 63 | 218 | 5.0 | 14.0 | 0.00 | 0.00 | 0.00 | 62 | 1004.1 |
| 20260509174334 | 63 | 179 | 4.0 | 10.0 | 0.00 | 0.00 | 0.00 | 68 | 1004.3 |
| 20260509173854 | 61 | 298 | 4.0 | 11.0 | 0.00 | 0.00 | 0.00 | 70 | 1004.4 |
| 20260509173346 | 60 | 231 | 4.0 | 11.0 | 0.00 | 0.00 | 0.00 | 69 | 1004.4 |
| 20260509172907 | 60 | 237 | 4.0 | 14.0 | 0.00 | 0.00 | 0.00 | 70 | 1004.6 |
| 20260509172352 | 61 | 260 | 6.0 | 14.0 | 0.00 | 0.00 | 0.00 | 67 | 1004.6 |
| 20260509171832 | 61 | 274 | 4.0 | 11.0 | 0.00 | 0.00 | 0.00 | 69 | 1004.5 |
| 20260509171332 | 61 | 235 | 3.0 | 10.0 | 0.00 | 0.00 | 0.00 | 66 | 1004.4 |
| 20260509170841 | 61 | 254 | 4.0 | 10.0 | 0.00 | 0.00 | 0.00 | 68 | 1004.6 |
| 20260509170359 | 60 | 213 | 4.0 | 11.0 | 0.00 | 0.00 | 0.00 | 72 | 1004.7 |
| 20260509165834 | 60 | 135 | 6.0 | 11.0 | 0.00 | 0.00 | 0.00 | 69 | 1004.8 |
| 20260509165344 | 61 | 213 | 4.0 | 9.0 | 0.00 | 0.00 | 0.00 | 69 | 1004.7 |
| 20260509164850 | 60 | 355 | 3.0 | 10.0 | 0.00 | 0.00 | 0.00 | 70 | 1004.7 |
| 20260509164332 | 60 | 240 | 5.0 | 11.0 | 0.00 | 0.00 | 0.00 | 70 | 1004.8 |
| 20260509163831 | 60 | 163 | 3.0 | 11.0 | 0.00 | 0.00 | 0.00 | 71 | 1004.7 |
| 20260509163346 | 60 | 216 | 3.0 | 11.0 | 0.00 | 0.00 | 0.00 | 73 | 1004.7 |
| 20260509162840 | 60 | 227 | 6.0 | 10.0 | 0.00 | 0.00 | 0.00 | 72 | 1004.8 |
| 20260509162432 | 60 | 43 | 3.0 | 12.0 | 0.00 | 0.00 | 0.00 | 70 | 1005.0 |
| 20260509161839 | 60 | 200 | 5.0 | 12.0 | 0.00 | 0.00 | 0.00 | 74 | 1004.9 |
| 20260509161350 | 60 | 246 | 4.0 | 9.0 | 0.00 | 0.00 | 0.00 | 73 | 1005.0 |
| 20260509160857 | 58 | 258 | 3.0 | 10.0 | 0.00 | 0.00 | 0.00 | 76 | 1005.1 |
| 20260509160416 | 58 | 223 | 7.0 | 10.0 | 0.00 | 0.00 | 0.00 | 74 | 1005.2 |
| 20260509155841 | 57 | 265 | 5.0 | 10.0 | 0.00 | 0.00 | 0.00 | 77 | 1005.1 |
| 20260509155345 | 57 | 244 | 5.0 | 10.0 | 0.00 | 0.00 | 0.00 | 76 | 1005.2 |
| 20260509154832 | 56 | 243 | 3.0 | 11.0 | 0.00 | 0.00 | 0.00 | 77 | 1005.3 |
| 20260509154350 | 56 | 252 | 5.0 | 11.0 | 0.00 | 0.00 | 0.00 | 76 | 1005.4 |
| 20260509153857 | 56 | 244 | 5.0 | 9.0 | 0.00 | 0.00 | 0.00 | 77 | 1005.3 |
| 20260509153406 | 57 | 268 | 4.0 | 10.0 | 0.00 | 0.00 | 0.00 | 78 | 1005.5 |
| 20260509152839 | 57 | 242 | 4.0 | 10.0 | 0.00 | 0.00 | 0.00 | 79 | 1005.4 |
| 20260509152337 | 56 | 246 | 5.0 | 10.0 | 0.00 | 0.00 | 0.00 | 79 | 1005.3 |
| 20260509151839 | 56 | 183 | 1.0 | 9.0 | 0.00 | 0.00 | 0.00 | 79 | 1005.3 |
| 20260509151334 | 56 | 190 | 2.0 | 11.0 | 0.00 | 0.00 | 0.00 | 80 | 1005.3 |
| 20260509150856 | 56 | 230 | 3.0 | 11.0 | 0.00 | 0.00 | 0.00 | 79 | 1005.2 |
| 20260509150336 | 56 | 180 | 2.0 | 7.0 | 0.00 | 0.00 | 0.00 | 81 | 1005.3 |
| 20260509145838 | 55 | 238 | 3.0 | 6.0 | 0.00 | 0.00 | 0.00 | 81 | 1005.5 |
| 20260509145414 | 55 | 223 | 2.0 | 5.0 | 0.00 | 0.00 | 0.00 | 81 | 1005.4 |
| 20260509144849 | 55 | 214 | 2.0 | 5.0 | 0.00 | 0.00 | 0.00 | 82 | 1005.5 |
| 20260509144342 | 54 | 242 | 3.0 | 8.0 | 0.00 | 0.00 | 0.00 | 82 | 1005.4 |
| 20260509143844 | 54 | 219 | 2.0 | 8.0 | 0.00 | 0.00 | 0.00 | 82 | 1005.4 |
| 20260509143406 | 54 | 20 | 2.0 | 10.0 | 0.00 | 0.00 | 0.00 | 82 | 1005.5 |
| 20260509142844 | 54 | 243 | 3.0 | 10.0 | 0.00 | 0.00 | 0.00 | 82 | 1005.5 |
| 20260509142346 | 54 | 135 | 2.0 | 8.0 | 0.00 | 0.00 | 0.00 | 83 | 1005.4 |
| 20260509141849 | 54 | 159 | 3.0 | 8.0 | 0.00 | 0.00 | 0.00 | 83 | 1005.4 |
| 20260509141352 | 54 | 216 | 2.0 | 5.0 | 0.00 | 0.00 | 0.00 | 83 | 1005.5 |
| 20260509140837 | 54 | 239 | 1.0 | 8.0 | 0.00 | 0.00 | 0.00 | 83 | 1005.5 |
| 20260509140352 | 54 | 9 | 2.0 | 8.0 | 0.00 | 0.00 | 0.00 | 82 | 1005.6 |
| 20260509135852 | 55 | 249 | 3.0 | 7.0 | 0.00 | 0.00 | 0.00 | 82 | 1005.6 |
| 20260509135350 | 55 | 145 | 4.0 | 14.0 | 0.00 | 0.00 | 0.00 | 83 | 1005.6 |
| 20260509134853 | 54 | 245 | 2.0 | 14.0 | 0.00 | 0.00 | 0.00 | 85 | 1005.6 |
| 20260509134407 | 53 | 161 | 2.0 | 8.0 | 0.00 | 0.00 | 0.00 | 85 | 1005.6 |
| 20260509133845 | 53 | 212 | 1.0 | 8.0 | 0.00 | 0.00 | 0.00 | 83 | 1005.6 |
| 20260509133351 | 54 | 154 | 3.0 | 7.0 | 0.00 | 0.00 | 0.00 | 84 | 1005.7 |
| 20260509132856 | 53 | 237 | 2.0 | 8.0 | 0.00 | 0.00 | 0.00 | 84 | 1005.7 |
| 20260509132344 | 54 | 159 | 2.0 | 9.0 | 0.00 | 0.00 | 0.00 | 85 | 1005.7 |
| 20260509131837 | 53 | 198 | 3.0 | 9.0 | 0.00 | 0.00 | 0.00 | 86 | 1005.8 |
| 20260509131343 | 53 | 178 | 4.0 | 9.0 | 0.00 | 0.00 | 0.00 | 88 | 1005.8 |
| 20260509130859 | 52 | 223 | 4.0 | 9.0 | 0.00 | 0.00 | 0.00 | 88 | 1006.0 |
| 20260509130336 | 52 | 145 | 2.0 | 7.0 | 0.00 | 0.00 | 0.00 | 89 | 1006.1 |
| 20260509125403 | 51 | 254 | 4.0 | 8.0 | 0.00 | 0.01 | 0.00 | 89 | 1006.1 |
| 20260509124846 | 51 | 259 | 1.0 | 5.0 | 0.00 | 0.01 | 0.00 | 90 | 1006.0 |
| 20260509124411 | 51 | 269 | 2.0 | 5.0 | 0.00 | 0.01 | 0.00 | 90 | 1006.1 |
| 20260509123851 | 51 | 274 | 1.0 | 5.0 | 0.00 | 0.01 | 0.00 | 90 | 1006.2 |
| 20260508234416 | 49 | 222 | 0.0 | 2.0 | 0.00 | 0.09 | 0.09 | 53 | 1008.5 |
| 20260508233854 | 50 | 222 | 0.0 | 2.0 | 0.00 | 0.09 | 0.09 | 56 | 1008.5 |
| 20260508233344 | 50 | 222 | 0.0 | 4.0 | 0.00 | 0.09 | 0.09 | 54 | 1008.5 |
| 20260508232843 | 50 | 182 | 2.0 | 4.0 | 0.00 | 0.09 | 0.09 | 56 | 1008.5 |
| 20260508232346 | 50 | 223 | 1.0 | 4.0 | 0.00 | 0.09 | 0.09 | 55 | 1008.4 |
| 20260508231853 | 50 | 229 | 2.0 | 4.0 | 0.00 | 0.09 | 0.09 | 58 | 1008.5 |
| 20260508231340 | 50 | 185 | 1.0 | 4.0 | 0.00 | 0.09 | 0.09 | 53 | 1008.4 |
| 20260508230834 | 50 | 178 | 1.0 | 5.0 | 0.00 | 0.09 | 0.09 | 52 | 1008.4 |
| 20260508230331 | 51 | 248 | 3.0 | 7.0 | 0.00 | 0.09 | 0.09 | 48 | 1008.4 |
| 20260508225844 | 51 | 211 | 3.0 | 7.0 | 0.00 | 0.09 | 0.09 | 49 | 1008.4 |
| 20260508225340 | 51 | 329 | 3.0 | 4.0 | 0.00 | 0.09 | 0.09 | 46 | 1008.4 |
| 20260508224840 | 51 | 172 | 1.0 | 4.0 | 0.00 | 0.09 | 0.09 | 49 | 1008.4 |
| 20260508224340 | 52 | 240 | 2.0 | 4.0 | 0.00 | 0.09 | 0.09 | 48 | 1008.5 |
| 20260508223836 | 52 | 194 | 2.0 | 7.0 | 0.00 | 0.09 | 0.09 | 47 | 1008.6 |
| 20260508223352 | 52 | 232 | 3.0 | 9.0 | 0.00 | 0.09 | 0.09 | 44 | 1008.6 |
| 20260508222843 | 53 | 207 | 2.0 | 11.0 | 0.00 | 0.09 | 0.09 | 47 | 1008.6 |
| 20260508222335 | 53 | 234 | 4.0 | 11.0 | 0.00 | 0.09 | 0.09 | 43 | 1008.5 |
| 20260508221837 | 53 | 271 | 2.0 | 10.0 | 0.00 | 0.09 | 0.09 | 44 | 1008.5 |
| 20260508221339 | 53 | 270 | 2.0 | 8.0 | 0.00 | 0.09 | 0.09 | 45 | 1008.4 |
| 20260508220857 | 53 | 223 | 4.0 | 8.0 | 0.00 | 0.09 | 0.09 | 41 | 1008.4 |
| 20260508220347 | 53 | 236 | 4.0 | 9.0 | 0.00 | 0.09 | 0.09 | 42 | 1008.4 |
| 20260508215834 | 53 | 238 | 4.0 | 10.0 | 0.00 | 0.09 | 0.09 | 42 | 1008.4 |
| 20260508215407 | 54 | 216 | 6.0 | 10.0 | 0.00 | 0.09 | 0.09 | 40 | 1008.5 |
| 20260508214842 | 54 | 13 | 1.0 | 9.0 | 0.00 | 0.09 | 0.09 | 45 | 1008.4 |
| 20260508214338 | 53 | 215 | 2.0 | 9.0 | 0.00 | 0.09 | 0.09 | 42 | 1008.4 |
| 20260508213844 | 54 | 289 | 3.0 | 8.0 | 0.00 | 0.09 | 0.09 | 40 | 1008.4 |
| 20260508213350 | 54 | 219 | 4.0 | 8.0 | 0.00 | 0.09 | 0.09 | 44 | 1008.4 |
| 20260508212906 | 54 | 209 | 2.0 | 8.0 | 0.00 | 0.09 | 0.09 | 44 | 1008.5 |
| 20260508212349 | 54 | 299 | 1.0 | 9.0 | 0.00 | 0.09 | 0.09 | 39 | 1008.4 |
| 20260508211911 | 54 | 253 | 4.0 | 9.0 | 0.00 | 0.09 | 0.09 | 39 | 1008.4 |
| 20260508211345 | 54 | 242 | 2.0 | 5.0 | 0.00 | 0.09 | 0.09 | 41 | 1008.4 |
| 20260508210833 | 55 | 63 | 2.0 | 5.0 | 0.00 | 0.09 | 0.09 | 36 | 1008.4 |
| 20260508210336 | 55 | 136 | 1.0 | 7.0 | 0.00 | 0.09 | 0.09 | 39 | 1008.5 |
| 20260508205848 | 54 | 194 | 2.0 | 7.0 | 0.00 | 0.09 | 0.09 | 39 | 1008.5 |
| 20260508205348 | 54 | 203 | 2.0 | 8.0 | 0.00 | 0.09 | 0.09 | 38 | 1008.6 |
| 20260508204840 | 54 | 237 | 2.0 | 8.0 | 0.00 | 0.09 | 0.09 | 41 | 1008.6 |
| 20260508204340 | 54 | 56 | 2.0 | 4.0 | 0.00 | 0.09 | 0.09 | 40 | 1008.6 |
| 20260508203835 | 55 | 22 | 1.0 | 6.0 | 0.00 | 0.09 | 0.09 | 39 | 1008.6 |
| 20260508203358 | 54 | 288 | 3.0 | 6.0 | 0.00 | 0.09 | 0.09 | 39 | 1008.6 |
| 20260508202853 | 54 | 178 | 2.0 | 11.0 | 0.00 | 0.09 | 0.09 | 42 | 1008.7 |
| 20260508202344 | 54 | 311 | 5.0 | 11.0 | 0.00 | 0.09 | 0.09 | 36 | 1008.6 |
| 20260508201844 | 54 | 227 | 3.0 | 12.0 | 0.00 | 0.09 | 0.09 | 43 | 1008.6 |
| 20260508201338 | 54 | 240 | 6.0 | 12.0 | 0.00 | 0.09 | 0.09 | 42 | 1008.7 |